Regional Weather Roundup
Issued by NWS Upton, NY

Current Version | Previous Version | Graphics & Text | Print | Product List | Glossary Off
Versions: 1 2 3 4 5 6 7 8 9 10 11 12 13 14 15 16 17 18 19 20 21 22 23 24 25 26

000
ASUS41 KOKX 271109
RWROKX

REGIONAL WEATHER ROUNDUP
NATIONAL WEATHER SERVICE NEW YORK NY
700 AM EDT THU JUL 27 2017

NOTE: "FAIR" INDICATES FEW OR NO CLOUDS BELOW 12,000 FEET WITH NO
SIGNIFICANT WEATHER AND/OR OBSTRUCTIONS TO VISIBILITY.

NYZ071-072-176-178-NJZ106-104-271200-
NEW YORK CITY METRO AREA

CITY           SKY/WX    TMP DP  RH WIND       PRES   REMARKS
Central Park   CLOUDY    67  61  81 CALM      30.09S
Bronx Bot Gard   N/A     66  59  77 CALM      30.07F
LaGuardia APRT PTSUNNY   68  61  78 SW6       30.05F
Kennedy INTL   CLOUDY    68  63  84 SW6       30.07S
Breezy Point     N/A     66 N/A N/A SW5         N/A
Newark/Liberty CLOUDY    66  60  81 W6        30.06S
Teterboro      CLOUDY    66  60  81 SW5       30.05S
$$

NYZ177-179-078>081-271200-
LONG ISLAND NEW YORK

CITY           SKY/WX    TMP DP  RH WIND       PRES   REMARKS
Jones Beach      N/A     66 N/A N/A SW3         N/A
Matinecock PT    N/A     66 N/A N/A SW6         N/A
Farmingdale    MOSUNNY   64  61  90 CALM      30.07S
MacArthur/ISP  PTSUNNY   65  61  87 NW3       30.06S
Shirley        MOSUNNY   61  59  93 CALM      30.07S
Mt Sinai Harb    N/A    N/A N/A N/A SW3         N/A
Westhampton    MOSUNNY   55  53  93 CALM      30.08S
East Hampton   FAIR      56  54  92 MISG      30.07S
Montauk          N/A     65  62  90 CALM      30.08R
$$

NYZ052-065-067-271200-
HUDSON VALLEY

CITY           SKY/WX    TMP DP  RH WIND       PRES   REMARKS
White Plains   CLOUDY    63  59  87 CALM      30.06S
Larchmont Harb   N/A     64 N/A N/A W1          N/A
Croton O-T Hud   N/A     64 N/A N/A S5          N/A
Newburgh       PTSUNNY   61  61 100 CALM      30.07F
Montgomery     CLOUDY    61  59  93 CALM      30.05F
Poughkeepsie   CLOUDY    62  58  86 SE5       30.04F
Albany         LGT RAIN  64  57  78 S8        30.00F
$$

NJZ001-105-106-008-010-013-015-019>022-104-271200-
NEW JERSEY

CITY           SKY/WX    TMP DP  RH WIND       PRES   REMARKS
Newark/Liberty CLOUDY    66  60  81 W6        30.06S
Teterboro      CLOUDY    66  60  81 SW5       30.05S
Caldwell       CLOUDY    63  61  93 CALM      30.07S
Somerville     CLOUDY    63  62  97 CALM      30.05F
Linden         FAIR      65  59  81 CALM      30.07R
Perth Amboy      N/A     64 N/A N/A W5          N/A
Sussex         CLOUDY    64  62  93 CALM      30.06S
Andover          N/A     64  61  90 CALM      30.06F
Trenton        CLOUDY    65  62  90 S3        30.06S
Millville      CLOUDY    66  66 100 CALM      30.07R
Atlantic City  MOSUNNY   65  62  90 CALM      30.07S
Wrightstown    CLOUDY    63  61  94 CALM      30.04S
Toms River     CLOUDY    58  56  93 CALM      30.08R
Belmar         PTSUNNY   62  58  86 S6        30.07F
$$

PAZ047>061-062-071-271200-
EASTERN PENNSYLVANIA

CITY           SKY/WX    TMP DP  RH WIND       PRES   REMARKS
Philadelphia   PTSUNNY   69  64  84 S6        30.06S
Allentown      CLOUDY    68  61  78 SE3       30.06S
Scranton       CLOUDY    68  63  84 S5        30.05S
$$

CTZ002-004>006-009-010-012-RIZ004-006-007-MAZ004-011-015-271200-
SOUTHERN NEW ENGLAND
 IN CT

CITY           SKY/WX    TMP DP  RH WIND       PRES   REMARKS
Bradley INTL   CLOUDY    62  58  86 S7        30.04F
Hartford       CLOUDY    64  60  87 S6        30.05S
Danbury        CLOUDY    62  59  90 CALM      30.07F
Wtrbury/Oxford PTSUNNY   59  54  82 CALM      30.07F
Bridgeport     MOSUNNY   66  60  81 W5        30.06S
Meriden        PTSUNNY   59  58  96 CALM      30.06S
New Haven      CLOUDY    66  60  81 W3        30.06S
Chester        FAIR      63  59  88 CALM      30.07S
Groton         MOSUNNY   66  61  84 SW7       30.05F
Wilimantic     CLOUDY    60  58  92 CALM      30.07S

 IN RI

CITY           SKY/WX    TMP DP  RH WIND       PRES   REMARKS
Providence     PTSUNNY   62  61  96 SW3       30.06F
Block Island   PTSUNNY   64  60  87 SW6       30.07F
Westerly       MOSUNNY   63  60  90 CALM      30.07S
 IN MA

CITY           SKY/WX    TMP DP  RH WIND       PRES   REMARKS
Boston         CLOUDY    63  59  87 SW12      30.03F
Worcester      CLOUDY    60  53  77 SW12      30.05F
Westfield      CLOUDY    61  58  90 S5        30.03F
Provincetown   CLOUDY    62  60  93 S8        30.06F
Nantucket      CLOUDY    59  57  93 S5        30.08F
$$

ANZ330-335-338-340-345-350-353-355-271200-
COASTAL MARINE OBSERVATIONS


STATION/POSITION TIME  SKY/WX   TEMP    WIND        PRES    VSBY  WAVE
                                AIR SEA DIR/SP/G                  HT/PER
                 (UTC)          (F)     (DEG/KT/KT) (MB)    (MI)  (FT/S)
NY HARB ENTRANCE 1050            69 73  230/  6/  8 1017.8          2/ 8
20 S FIRE ISLAND 1050            69 73  240/  8/ 10 1018.0          2/10
GREAT SOUTH BAY  1030            69 75  240/  8/ 12   N/A
23 SSW MONTAUK P 0950            67 68              1018.7          2/10
15 E BARNEGAT LI 1030               73                N/A           2/10
HUDSON CANYON    1050            69 72  190/  2/  4 1018.0          2/ 7
KINGS POINT      1024            67 72  230/  6/  7 1017.8
EXECUTION ROCKS  1045            68     210/  6/  8   N/A
CENTRAL LI SOUND 1015            67     220/  8/ 10   N/A           1
EASTERN LI SOUND NOT AVBL
ROBBINS REEF     1030                   200/  4/  7 1018.5
$$


>>>>>>>>>>>>>>>>>>>>>>>>>>>> KEY <<<<<<<<<<<<<<<<<<<<<<<<<<<
>                                                          <
>     SKY/WX - Sky Condition/Present Weather               <
>     TMP    - Temperature in Fahrenheit                   <
>     DP     - Dew Point in Fahrenheit                     <
>     RH     - Relative Humidity in Percent                <
>     WIND   - Direction (from) and Speed in MPH           <
>     PRES   - Mean Sea Level Pressure (inches of Hg)      <
>     WCI    - Wind Chill Index                            <
>     VSB    - VISIBILITY IN MILES                         <
>     HX     - HEAT INDEX                                  <
>     TC     - TEMPERATURE IN CELSIUS                      <
>     VRB    - VARIABLE WIND DIRECTION                     <
>                                                          <
>>>>>>>>>>>>>>>>>>>>>>>>>>>> KEY <<<<<<<<<<<<<<<<<<<<<<<<<<<




USA.gov is the U.S. government's official web portal to all federal, state and local government web resources and services.